EA7RX-4 Weather Reports


time (UTC)temp
C
wind
direction
speed
KPH
gust
KPH
rain 1hr
cm
rain 24hr
cm
rain mn
cm
humidity
%
barometer
mb
20260507100003 14 154 16.1 27.4 0.00 0.00 0.00 62 1009.8
20260507095003 15 132 16.1 24.1 0.00 0.00 0.00 62 1010.1
20260507094003 15 126 14.5 25.7 0.00 0.00 0.00 62 1010.0
20260507093003 14 113 16.1 30.6 0.00 0.00 0.00 66 1009.8
20260507092003 13 140 12.9 25.7 0.00 0.00 0.00 65 1009.8
20260507091003 13 140 12.9 25.7 0.00 0.00 0.00 71 1009.7
20260507090004 13 118 11.3 25.7 0.00 0.00 0.00 67 1009.8
20260507085003 13 131 8.0 17.7 0.00 0.00 0.00 67 1010.0
20260507084003 13 147 9.7 20.9 0.00 0.00 0.00 67 1009.6
20260507083003 12 139 11.3 17.7 0.00 0.00 0.00 68 1010.0
20260507082003 12 144 9.7 22.5 0.00 0.00 0.00 68 1009.7
20260507081003 12 153 9.7 17.7 0.00 0.00 0.00 68 1009.8
20260507080003 12 122 9.7 20.9 0.00 0.00 0.00 68 1009.6
20260507075003 12 137 4.8 12.9 0.00 0.00 0.00 69 1009.7
20260507074003 11 112 4.8 11.3 0.00 0.00 0.00 72 1009.7
20260507073003 12 114 3.2 9.7 0.00 0.00 0.00 70 1009.8
20260507072003 11 86 1.6 9.7 0.00 0.00 0.00 69 1009.5
20260507071003 11 74 1.6 9.7 0.00 0.00 0.00 73 1009.8
20260507070005 10 46 3.2 9.7 0.00 0.00 0.00 75 1009.5
20260507065003 10 53 3.2 9.7 0.00 0.00 0.00 75 1009.4
20260507064003 10 48 3.2 9.7 0.00 0.00 0.00 77 1009.2
20260507063003 10 32 4.8 9.7 0.00 0.00 0.00 78 1009.4
20260507062003 10 31 3.2 6.4 0.00 0.00 0.00 77 1009.2
20260507061003 9 41 3.2 9.7 0.00 0.00 0.00 78 1009.2
20260507060003 9 37 4.8 9.7 0.00 0.00 0.00 79 1009.0
20260507055003 9 23 4.8 9.7 0.00 0.00 0.00 78 1008.9
20260507054003 9 39 6.4 11.3 0.00 0.00 0.00 79 1009.0
20260507053003 9 35 4.8 11.3 0.00 0.00 0.00 80 1008.9
20260507052003 9 38 6.4 12.9 0.00 0.00 0.00 80 1008.8
20260507051003 9 37 8.0 12.9 0.00 0.00 0.00 80 1008.8
20260507050003 9 38 6.4 11.3 0.00 0.00 0.00 80 1008.6
20260507045003 9 43 4.8 9.7 0.00 0.00 0.00 79 1008.8
20260507044003 10 55 3.2 11.3 0.00 0.00 0.00 79 1008.8
20260507043003 10 69 3.2 11.3 0.00 0.00 0.00 78 1008.5
20260507042003 10 56 6.4 11.3 0.00 0.00 0.00 78 1009.0
20260507041003 10 45 4.8 11.3 0.00 0.00 0.00 79 1008.9
20260507040003 10 52 3.2 9.7 0.00 0.00 0.00 79 1008.9
20260507035003 10 72 3.2 9.7 0.00 0.00 0.00 79 1008.9
20260507034003 10 94 6.4 12.9 0.00 0.00 0.00 79 1008.8
20260507033003 10 94 9.7 20.9 0.00 0.00 0.00 80 1008.5
20260507032003 10 90 12.9 22.5 0.00 0.00 0.00 79 1008.3
20260507031003 10 90 12.9 22.5 0.00 0.00 0.00 80 1008.3
20260507030003 9 100 14.5 24.1 0.00 0.00 0.00 80 1008.4
20260507025003 10 102 16.1 27.4 0.00 0.00 0.00 79 1008.5
20260507024003 10 112 17.7 27.4 0.00 0.00 0.00 79 1008.4
20260507023003 10 105 16.1 27.4 0.00 0.00 0.00 79 1008.3
20260507022003 9 102 16.1 24.1 0.00 0.00 0.00 79 1008.5
20260507021003 10 110 16.1 29.0 0.00 0.00 0.00 79 1008.5
20260507020003 10 92 17.7 25.7 0.00 0.00 0.00 78 1008.5
20260507015003 10 106 14.5 24.1 0.00 0.00 0.00 77 1008.4
20260507014003 10 105 17.7 25.7 0.00 0.00 0.00 75 1008.6
20260507013003 9 99 16.1 25.7 0.00 0.00 0.00 73 1008.6
20260507012003 9 110 14.5 25.7 0.00 0.00 0.00 71 1008.8
20260507011003 9 112 14.5 22.5 0.00 0.00 0.00 69 1008.8
20260507010003 9 109 14.5 22.5 0.00 0.00 0.00 68 1009.0
20260507005003 9 120 14.5 25.7 0.00 0.00 0.00 67 1009.0
20260507004003 10 110 14.5 24.1 0.00 0.00 0.00 65 1009.1
20260507003003 10 111 14.5 24.1 0.00 0.00 0.00 63 1009.2
20260507002003 10 111 14.5 22.5 0.00 0.00 0.00 62 1009.0
20260507001003 10 111 14.5 27.4 0.00 0.00 0.00 61 1009.0
20260507000003 11 103 16.1 25.7 0.00 0.00 0.00 59 1009.0
20260506235003 11 99 16.1 29.0 0.00 0.00 0.00 58 1008.9
20260506234003 11 98 12.9 25.7 0.00 0.00 0.00 58 1009.0
20260506233003 11 83 9.7 20.9 0.00 0.00 0.00 56 1009.0
20260506232003 11 87 8.0 16.1 0.00 0.00 0.00 53 1008.8
20260506231003 12 71 8.0 16.1 0.00 0.00 0.00 51 1008.9
20260506230003 12 80 8.0 14.5 0.00 0.00 0.00 49 1009.0
20260506225003 12 78 6.4 14.5 0.00 0.00 0.00 47 1009.1
20260506224003 12 76 8.0 16.1 0.00 0.00 0.00 46 1008.9
20260506223003 12 82 6.4 16.1 0.00 0.00 0.00 44 1009.0
20260506222003 13 73 4.8 9.7 0.00 0.00 0.00 43 1009.0
20260506221003 13 64 3.2 11.3 0.00 0.00 0.00 41 1009.0
20260506220003 13 80 4.8 6.4 0.00 0.00 0.00 42 1009.0
20260506215003 14 60 3.2 6.4 0.00 0.00 0.00 38 1009.2
20260506214003 14 55 4.8 9.7 0.00 0.00 0.00 38 1009.1
20260506213003 14 55 4.8 9.7 0.00 0.00 0.00 38 1009.1
20260506212003 14 68 3.2 6.4 0.00 0.00 0.00 39 1009.0
20260506211003 14 65 3.2 6.4 0.00 0.00 0.00 38 1009.1
20260506210003 14 61 3.2 6.4 0.00 0.00 0.00 38 1009.1
20260506205003 14 75 3.2 4.8 0.00 0.00 0.00 38 1009.2
20260506204003 14 76 1.6 4.8 0.00 0.00 0.00 38 1009.1
20260506203003 14 92 1.6 1.6 0.00 0.00 0.00 38 1008.9
20260506202003 15 151 0.0 1.6 0.00 0.00 0.00 39 1008.9
20260506201003 15 0 0.0 0.0 0.00 0.00 0.00 38 1009.0
20260506200003 15 180 0.0 1.6 0.00 0.00 0.00 36 1008.8
20260506195003 15 180 1.6 1.6 0.00 0.00 0.00 35 1008.9
20260506194003 15 174 0.0 1.6 0.00 0.00 0.00 35 1008.6
20260506193003 15 187 0.0 1.6 0.00 0.00 0.00 36 1008.6
20260506192003 16 216 1.6 3.2 0.00 0.00 0.00 35 1008.4
20260506191003 16 298 1.6 3.2 0.00 0.00 0.00 34 1008.6
20260506190003 17 273 1.6 3.2 0.00 0.00 0.00 33 1008.5
20260506185003 17 122 1.6 3.2 0.00 0.00 0.00 32 1008.6
20260506184003 17 358 3.2 9.7 0.00 0.00 0.00 32 1008.5
20260506183003 17 258 3.2 6.4 0.00 0.00 0.00 32 1008.4
20260506182003 17 99 1.6 4.8 0.00 0.00 0.00 32 1008.3
20260506181003 17 262 3.2 9.7 0.00 0.00 0.00 32 1008.3
20260506180003 17 261 6.4 11.3 0.00 0.00 0.00 32 1008.5
20260506175003 17 227 4.8 14.5 0.00 0.00 0.00 32 1008.5
20260506174003 17 219 4.8 9.7 0.00 0.00 0.00 32 1008.5
20260506173003 17 206 4.8 9.7 0.00 0.00 0.00 32 1008.6
20260506172003 18 257 3.2 9.7 0.00 0.00 0.00 32 1008.4
20260506171003 17 254 6.4 14.5 0.00 0.00 0.00 31 1008.6
20260506170003 17 264 4.8 11.3 0.00 0.00 0.00 32 1008.8
20260506165003 17 346 6.4 11.3 0.00 0.00 0.00 31 1008.8
20260506164003 17 287 8.0 12.9 0.00 0.00 0.00 32 1008.8
20260506163003 17 293 8.0 16.1 0.00 0.00 0.00 32 1008.6
20260506162003 17 316 8.0 16.1 0.00 0.00 0.00 32 1008.5
20260506161003 17 293 4.8 12.9 0.00 0.00 0.00 32 1008.9
20260506160003 17 29 4.8 16.1 0.00 0.00 0.00 32 1008.9
20260506155003 17 351 6.4 12.9 0.00 0.00 0.00 33 1008.6
20260506154003 17 55 4.8 11.3 0.00 0.00 0.00 33 1009.2
20260506153003 17 333 4.8 17.7 0.00 0.00 0.00 34 1009.1
20260506152003 17 18 6.4 17.7 0.00 0.00 0.00 34 1009.2
20260506151003 16 303 4.8 14.5 0.00 0.00 0.00 35 1009.2
20260506150003 16 316 6.4 14.5 0.00 0.00 0.00 35 1009.4
20260506145003 17 289 4.8 12.9 0.00 0.00 0.00 34 1009.4
20260506144003 17 336 8.0 14.5 0.00 0.00 0.00 35 1009.6
20260506143003 17 292 6.4 16.1 0.00 0.00 0.00 35 1009.5
20260506142003 17 237 4.8 12.9 0.00 0.00 0.00 34 1010.0
20260506141003 16 345 4.8 9.7 0.00 0.00 0.00 35 1009.8
20260506140003 17 185 3.2 14.5 0.00 0.00 0.00 36 1010.0
20260506135003 16 217 9.7 16.1 0.00 0.00 0.00 38 1010.2
20260506134003 15 316 4.8 12.9 0.00 0.00 0.00 39 1010.2
20260506133003 16 129 3.2 9.7 0.00 0.00 0.00 39 1010.3
20260506132003 15 75 6.4 16.1 0.00 0.00 0.00 41 1010.3
20260506131003 15 72 6.4 12.9 0.00 0.00 0.00 40 1010.5
20260506130003 15 66 6.4 17.7 0.00 0.00 0.00 43 1010.4
20260506125003 15 210 3.2 9.7 0.00 0.00 0.00 41 1010.4
20260506124003 15 94 3.2 9.7 0.00 0.00 0.00 41 1010.6
20260506123003 15 80 4.8 11.3 0.00 0.00 0.00 40 1010.6
20260506122003 15 232 4.8 14.5 0.00 0.00 0.00 42 1010.8
20260506121003 14 276 4.8 11.3 0.00 0.00 0.00 44 1010.9
20260506120003 14 46 1.6 11.3 0.00 0.00 0.00 44 1011.2
20260506115003 15 273 3.2 9.7 0.00 0.00 0.00 43 1011.2
20260506114003 14 6 4.8 22.5 0.00 0.00 0.00 44 1010.8
20260506113003 13 261 8.0 16.1 0.00 0.00 0.00 47 1011.0
20260506112003 13 288 9.7 17.7 0.00 0.00 0.00 45 1011.2
20260506111003 13 269 4.8 11.3 0.00 0.00 0.00 47 1011.2
20260506110003 13 94 3.2 9.7 0.00 0.00 0.00 48 1011.3
20260506105003 13 38 8.0 20.9 0.00 0.00 0.00 48 1011.3
20260506104003 13 9 6.4 20.9 0.00 0.00 0.00 49 1011.3
20260506103003 12 22 6.4 14.5 0.00 0.00 0.00 51 1011.3
20260506102003 13 37 4.8 12.9 0.00 0.00 0.00 51 1011.3
20260506101003 13 61 6.4 14.5 0.00 0.00 0.00 52 1011.4